Regional Weather Roundup
Issued by NWS

Home | Current Version | Previous Version | Text Only | Print | Product List | Glossary On
Versions: 1 2 3 4 5 6 7 8 9 10 11 12 13 14 15 16 17 18 19 20 21 22 23 24 25 26 27 28 29 30 31 32 33 34 35 36 37 38 39 40 41 42 43 44 45 46 47 48 49 50
000
ASUS43 KTOP 100708
RWRKS

WEATHER ROUNDUP FOR KANSAS
NATIONAL WEATHER SERVICE GOODLAND KS
100 AM CST WED FEB 10 2016

NOTE:  "FAIR" INDICATES FEW OR NO CLOUDS BELOW 12,000 FEET WITH NO
SIGNIFICANT WEATHER AND/OR OBSTRUCTIONS TO VISIBILITY.

KSZ001>006-013>018-027>032-041>047-100800-
NORTHWEST KANSAS

CITY           SKY/WX    TMP DP  RH WIND       PRES   REMARKS
GOODLAND       CLEAR     37  26  64 W17       30.16F WCI  27
HAYS           CLOUDY    28  16  59 SW8       30.17F
HILL CITY      CLEAR     30  23  75 W6        30.15F
RUSSELL        CLOUDY    30  22  72 SW15      30.16F WCI  19
$$

KSZ061>065-074>080-084>089-100800-
SOUTHWEST KANSAS

CITY           SKY/WX    TMP DP  RH WIND       PRES   REMARKS
DODGE CITY     CLEAR     31  21  66 S12       30.21F WCI  22
ELKHART          N/A     39  23  52 W13         N/A  WCI  31
GARDEN CITY    CLEAR     32  25  75 W10       30.19F WCI  24
GREAT BEND     MOCLDY    28  18  64 S9        30.21F
LIBERAL        CLEAR     28  21  74 W10       30.23F WCI  19
PRATT          CLOUDY    23  17  78 S7        30.23F
$$

KSZ066>073-081>083-090>101-100800-
SOUTHEAST KANSAS

CITY           SKY/WX    TMP DP  RH WIND       PRES   REMARKS
CHANUTE        PTCLDY    20   9  62 W5        30.27F
COFFEYVILLE    CLEAR     21   9  59 W3        30.30F
HUTCHINSON     CLOUDY    29  16  58 S8        30.23F
MEDICINE LODGE   N/A     27  22  81 CALM      30.26F
NEWTON         CLOUDY    21   9  58 S7        30.24F
PARSONS        CLEAR     18  11  74 CALM      30.29F
WICHITA INTL   CLOUDY    27  13  55 SE5       30.24F
WICHITA JABRA  CLOUDY    21  13  71 SE5       30.25F
WICHITA MCCONL CLOUDY    25  12  58 E6        30.25F
WINFIELD       PTCLDY    21  13  71 SE5       30.28F
$$

KSZ007>012-019>026-033>040-048>060-102>105-100800-
NORTHEAST KANSAS

CITY           SKY/WX    TMP DP  RH WIND       PRES   REMARKS
CONCORDIA      CLOUDY    26  15  63 S10       30.19F WCI  16
EMPORIA        CLEAR     18  10  71 SW5       30.24F
LAWRENCE       CLOUDY    19  13  77 CALM      30.25F
MANHATTAN      CLEAR     18  13  80 CALM      30.23F
MARYSVILLE     CLOUDY    23  16  74 S6        30.19F
OLATHE IND     MOCLDY    20  10  65 SW3       30.24F
OLATHE EXE     CLEAR     18   8  65 CALM      30.24F
SALINA         CLOUDY    27  17  66 S8        30.22F
TOPEKA BILLARD MOCLDY    24  12  60 CALM      30.24F
TOPEKA FORBES  MOCLDY    20  12  71 SW3       30.23F
$$



USA.gov is the U.S. government's official web portal to all federal, state and local government web resources and services.